GEFSSE_prec_meanprecacc_288.txt.gz
Total_Precipitation_Accumulation
2.12 2.27 2.28 1.60 1.29 1.16 1.15 1.12 1.12 1.08 1.06 1.12 1.23 1.32 1.24 1.29 1.41 1.45 1.57 1.80 1.86 1.98 2.29 2.46 2.52 2.38 2.10 1.92 1.83 1.63 1.38 1.39 1.46 1.48 1.48 1.53 1.59 1.85 2.27 2.14 1.98 1.45 1.37
1.61 1.80 1.91 1.44 1.10 1.04 1.01 1.02 1.01 0.99 0.98 0.96 1.08 1.26 1.33 1.45 1.57 1.57 1.69 1.90 2.08 2.35 2.40 2.37 2.28 2.02 1.89 1.69 1.56 1.47 1.38 1.46 1.57 1.60 1.51 1.37 1.64 2.01 2.29 2.15 2.15 1.43 1.35
1.17 1.30 1.27 1.24 1.02 0.90 0.92 0.95 0.95 0.95 0.91 0.84 0.95 1.18 1.36 1.59 1.80 1.82 1.87 2.09 2.40 2.43 2.33 2.26 1.96 1.69 1.57 1.39 1.34 1.34 1.38 1.51 1.61 1.83 1.87 1.37 1.30 1.99 2.09 1.96 1.61 1.20 1.20
0.93 0.95 0.87 0.94 0.93 0.86 0.85 0.84 0.83 0.85 0.85 0.85 0.96 1.15 1.32 1.47 1.70 1.84 2.00 2.22 2.41 2.29 2.22 1.94 1.65 1.46 1.32 1.16 1.15 1.19 1.29 1.50 1.79 2.17 2.19 1.66 1.07 1.55 1.83 1.66 1.38 1.15 1.09
0.85 0.78 0.90 0.92 0.86 0.83 0.79 0.82 0.83 0.84 0.83 0.88 0.96 1.11 1.27 1.46 1.69 1.83 1.87 2.08 2.12 1.98 1.89 1.71 1.52 1.27 1.11 1.02 1.01 1.10 1.28 1.58 1.81 2.04 1.88 1.77 1.56 1.62 1.66 1.56 1.41 1.32 1.21
0.81 0.79 0.85 0.89 0.84 0.85 0.79 0.75 0.80 0.81 0.86 0.91 1.05 1.19 1.29 1.52 1.68 1.70 1.76 2.02 1.99 1.85 1.74 1.61 1.38 1.12 0.97 0.89 0.94 1.02 1.23 1.58 1.59 1.36 1.38 1.50 1.41 1.52 1.53 1.62 1.53 1.37 1.26
0.97 0.98 0.91 0.95 0.93 0.87 0.77 0.70 0.75 0.79 0.87 0.92 1.07 1.22 1.29 1.42 1.50 1.58 1.76 1.92 1.86 1.72 1.56 1.43 1.26 1.05 0.99 0.99 0.98 0.98 1.26 1.53 1.36 1.19 1.27 1.62 1.45 1.23 1.49 1.73 1.69 1.47 1.27
1.00 1.05 1.01 1.08 1.04 0.98 0.83 0.74 0.80 0.88 0.95 1.00 1.07 1.13 1.19 1.25 1.33 1.50 1.76 1.89 1.76 1.50 1.37 1.34 1.23 1.08 1.03 1.06 0.98 1.01 1.24 1.32 1.07 1.12 1.08 1.25 1.11 1.13 1.44 1.68 1.68 1.54 1.38
1.17 1.13 1.11 1.11 0.99 1.03 1.00 0.90 0.94 1.07 1.10 1.08 1.08 1.09 1.12 1.20 1.31 1.51 1.81 1.90 1.70 1.41 1.30 1.25 1.22 1.09 0.99 1.03 1.07 1.14 1.34 1.47 1.30 1.35 1.02 1.16 1.08 1.27 1.57 1.72 1.72 1.64 1.59
1.59 1.36 1.23 1.28 1.25 1.12 1.09 1.07 1.18 1.25 1.26 1.23 1.17 1.23 1.31 1.40 1.45 1.67 1.83 1.83 1.63 1.41 1.32 1.25 1.24 1.10 1.04 1.05 1.10 1.31 1.59 1.45 1.10 1.20 1.25 1.10 1.17 1.53 1.90 1.87 1.87 1.89 1.86
1.94 1.70 1.46 1.34 1.29 1.21 1.17 1.25 1.56 1.56 1.48 1.46 1.50 1.54 1.63 1.88 1.99 2.18 2.00 1.94 1.72 1.58 1.58 1.51 1.51 1.39 1.25 1.16 1.31 1.55 1.53 1.31 1.36 1.46 1.41 1.18 1.41 1.84 2.17 2.15 2.11 2.09 2.08
2.12 1.78 1.71 1.59 1.43 1.33 1.17 1.33 1.79 1.65 1.60 1.75 1.92 1.85 2.08 2.48 2.76 2.40 2.35 2.34 2.27 2.22 2.11 2.13 2.19 1.82 1.49 1.57 2.08 2.11 1.47 1.42 1.60 1.64 1.58 1.52 1.82 2.28 2.53 2.50 2.48 2.29 2.24
2.30 1.96 1.84 1.74 1.65 1.65 1.75 1.57 1.73 1.85 1.97 2.06 2.10 2.18 2.39 2.44 2.62 2.71 2.75 2.77 2.81 2.63 2.49 2.71 2.66 2.09 2.11 2.52 2.62 2.31 1.78 1.75 1.90 1.82 1.92 1.99 2.06 2.60 3.07 2.97 2.90 2.65 2.45
2.55 2.24 2.01 1.88 1.88 1.96 1.91 1.87 1.82 1.92 1.99 2.17 2.36 2.36 2.63 3.00 3.10 3.18 3.16 2.98 3.07 3.06 3.26 3.23 3.27 2.82 2.82 2.60 2.49 2.44 2.25 2.29 2.16 2.37 2.78 2.49 2.25 2.62 3.37 3.48 3.37 3.07 2.67
2.71 2.38 2.32 2.07 2.00 2.05 2.23 2.36 2.10 2.34 2.37 2.44 2.68 2.83 2.95 3.26 3.32 3.35 3.29 3.28 2.97 3.04 3.27 3.63 3.50 3.70 3.67 3.24 2.77 2.61 2.59 2.61 2.55 2.65 2.95 2.97 2.77 2.86 3.67 4.16 4.03 3.69 3.22
2.69 2.51 2.45 2.31 2.34 2.41 2.46 2.58 2.70 2.86 2.97 2.90 2.94 3.06 3.13 3.33 3.65 3.67 3.59 3.52 3.15 3.04 3.36 3.70 3.70 4.23 4.11 3.90 3.35 2.99 2.79 2.75 2.71 2.80 3.14 3.34 3.24 3.20 3.68 4.28 4.53 4.46 4.00
2.48 2.56 2.69 2.78 2.98 3.07 3.10 3.09 3.07 3.21 3.25 3.38 3.69 3.76 3.81 3.71 3.85 3.73 3.68 3.51 3.43 3.36 3.53 3.63 3.76 4.19 3.95 3.89 3.75 3.40 3.18 2.95 2.77 2.99 3.37 3.73 3.35 3.26 3.64 4.16 4.60 4.60 4.42
2.50 2.61 2.84 2.89 3.30 3.49 3.59 3.70 3.63 3.61 3.63 3.90 4.12 4.30 4.25 4.05 3.87 3.94 3.68 3.47 3.56 3.51 3.71 4.04 4.05 4.15 4.28 4.20 3.97 3.65 3.47 3.37 2.92 2.97 3.12 3.31 3.56 3.07 3.50 4.18 4.46 4.23 4.31
2.87 3.14 3.47 3.53 3.51 3.62 3.84 4.02 3.81 3.83 3.83 3.85 3.95 4.21 4.12 3.80 3.65 4.01 3.84 3.82 3.74 3.95 3.86 3.54 4.15 4.36 4.36 4.26 3.67 3.63 3.24 3.21 3.14 2.90 3.01 3.07 3.28 3.24 3.32 3.46 4.06 3.89 4.13
3.24 3.64 3.87 3.88 4.12 4.44 4.65 4.57 4.34 4.00 3.80 3.69 3.75 3.90 3.81 3.74 3.60 3.93 3.72 3.68 3.85 4.24 4.32 4.18 4.45 4.37 4.22 4.28 3.58 3.39 3.09 2.80 2.80 2.78 2.59 2.83 2.89 2.62 2.86 3.13 3.56 3.03 3.30
3.31 3.58 3.88 4.25 4.63 4.76 4.60 4.54 4.52 4.31 4.05 3.68 3.53 3.62 3.65 3.41 3.44 3.86 3.55 3.94 3.98 4.17 4.31 4.25 4.47 4.39 4.17 4.28 4.24 3.65 3.02 2.61 2.53 2.35 2.36 2.59 2.50 2.55 2.90 3.39 3.67 3.54 3.13
3.06 3.37 3.79 4.25 4.58 4.50 4.63 4.86 4.85 4.66 4.03 3.70 3.59 3.58 3.44 3.26 3.21 3.35 3.89 3.86 3.97 4.19 4.24 4.17 4.23 4.03 3.75 4.10 4.41 4.24 3.51 3.04 2.58 2.11 2.35 2.37 2.50 2.79 2.82 2.88 3.33 3.70 3.50
3.03 3.51 3.85 4.18 4.32 4.34 4.57 4.73 4.47 4.28 3.82 3.69 3.70 3.59 3.37 3.29 3.27 3.41 3.68 3.77 3.85 3.74 3.98 4.15 3.96 3.91 3.80 3.83 4.07 4.32 3.86 3.23 2.71 2.37 2.23 2.29 2.65 2.89 2.75 2.70 2.69 2.96 3.04
3.03 3.63 4.06 4.09 4.16 4.02 4.16 4.32 4.19 3.85 3.61 3.50 3.49 3.27 3.13 3.03 3.02 3.14 3.31 3.51 3.66 3.57 3.74 3.61 3.67 3.85 3.88 3.69 3.81 3.75 3.67 3.46 3.28 2.83 2.42 2.30 2.53 2.63 2.61 2.39 2.40 2.73 2.90
2.75 3.17 3.60 3.95 4.01 3.82 3.77 3.85 4.01 3.84 3.55 3.32 3.21 3.12 3.05 3.01 2.81 2.79 3.01 3.26 3.43 3.31 3.28 3.47 3.79 3.73 3.63 3.59 3.72 3.76 3.93 3.76 3.42 3.26 2.88 2.61 2.46 2.21 2.28 2.31 2.29 2.40 2.64
2.56 2.92 3.23 3.46 3.44 3.38 3.34 3.38 3.51 3.57 3.52 3.28 3.09 3.13 3.08 2.92 2.75 2.67 2.78 3.13 3.23 3.16 3.13 3.23 3.31 3.36 3.40 3.58 3.58 3.50 3.74 3.75 3.58 3.61 3.21 2.84 2.55 2.08 2.01 2.08 2.18 2.31 2.45

GEFSSE_prec_meanprecacc_294.txt.gz
Total_Precipitation_Accumulation
2.20 2.37 2.36 1.63 1.33 1.23 1.24 1.20 1.18 1.14 1.14 1.20 1.30 1.42 1.35 1.41 1.52 1.55 1.66 1.89 1.98 2.14 2.47 2.64 2.67 2.51 2.23 2.01 1.90 1.70 1.44 1.45 1.54 1.56 1.54 1.58 1.65 1.90 2.33 2.19 2.03 1.49 1.41
1.66 1.87 1.97 1.48 1.15 1.10 1.08 1.09 1.07 1.05 1.03 1.01 1.14 1.33 1.41 1.55 1.70 1.70 1.84 2.04 2.25 2.54 2.57 2.50 2.39 2.12 1.98 1.76 1.62 1.52 1.43 1.52 1.63 1.66 1.57 1.42 1.70 2.08 2.36 2.21 2.19 1.45 1.38
1.21 1.34 1.29 1.29 1.07 0.95 0.96 1.00 1.01 1.00 0.95 0.89 1.01 1.27 1.45 1.70 1.96 1.98 2.05 2.27 2.56 2.56 2.44 2.37 2.05 1.78 1.65 1.45 1.39 1.39 1.43 1.57 1.69 1.90 1.91 1.39 1.34 2.06 2.17 2.02 1.66 1.23 1.23
0.96 0.97 0.89 0.99 0.98 0.91 0.91 0.89 0.87 0.90 0.89 0.90 1.01 1.23 1.41 1.60 1.87 1.97 2.12 2.34 2.51 2.38 2.31 2.03 1.75 1.55 1.38 1.21 1.19 1.23 1.34 1.55 1.85 2.22 2.21 1.67 1.08 1.59 1.89 1.71 1.43 1.18 1.13
0.87 0.81 0.93 0.96 0.90 0.88 0.83 0.85 0.86 0.87 0.86 0.91 1.00 1.17 1.33 1.57 1.82 1.96 2.02 2.23 2.24 2.08 1.98 1.80 1.61 1.34 1.17 1.06 1.04 1.15 1.34 1.64 1.88 2.08 1.90 1.79 1.57 1.66 1.70 1.61 1.44 1.35 1.24
0.83 0.82 0.88 0.93 0.88 0.89 0.83 0.77 0.82 0.84 0.89 0.94 1.10 1.25 1.34 1.60 1.79 1.83 1.94 2.21 2.13 1.97 1.84 1.69 1.45 1.18 1.02 0.93 0.98 1.08 1.29 1.66 1.67 1.41 1.42 1.54 1.45 1.56 1.57 1.67 1.56 1.40 1.28
0.99 1.01 0.94 0.97 0.96 0.90 0.79 0.72 0.77 0.80 0.89 0.96 1.11 1.27 1.34 1.48 1.60 1.75 1.95 2.07 1.97 1.81 1.65 1.51 1.32 1.10 1.04 1.05 1.03 1.04 1.30 1.58 1.40 1.23 1.31 1.66 1.48 1.25 1.52 1.76 1.71 1.49 1.30
1.01 1.07 1.04 1.11 1.08 1.02 0.86 0.76 0.82 0.90 0.97 1.04 1.11 1.18 1.25 1.33 1.45 1.65 1.91 1.99 1.84 1.56 1.44 1.41 1.27 1.12 1.08 1.11 1.03 1.06 1.29 1.36 1.10 1.16 1.12 1.28 1.14 1.16 1.47 1.70 1.70 1.56 1.40
1.19 1.15 1.14 1.16 1.04 1.09 1.05 0.93 0.96 1.09 1.13 1.11 1.13 1.13 1.18 1.30 1.44 1.63 1.91 1.99 1.78 1.49 1.38 1.32 1.26 1.14 1.04 1.08 1.10 1.18 1.37 1.51 1.37 1.40 1.05 1.19 1.14 1.31 1.60 1.75 1.74 1.66 1.61
1.62 1.41 1.32 1.39 1.33 1.18 1.14 1.13 1.23 1.29 1.30 1.27 1.22 1.28 1.38 1.56 1.59 1.78 1.92 1.92 1.74 1.52 1.42 1.32 1.30 1.16 1.10 1.10 1.14 1.35 1.63 1.50 1.16 1.24 1.28 1.13 1.23 1.57 1.93 1.90 1.90 1.91 1.88
1.96 1.74 1.52 1.39 1.32 1.25 1.20 1.29 1.62 1.64 1.55 1.52 1.56 1.60 1.70 2.01 2.09 2.27 2.10 2.05 1.83 1.70 1.69 1.59 1.59 1.47 1.31 1.21 1.36 1.60 1.57 1.38 1.42 1.50 1.44 1.22 1.45 1.87 2.21 2.18 2.14 2.12 2.11
2.13 1.80 1.73 1.61 1.45 1.35 1.20 1.36 1.85 1.71 1.65 1.81 1.97 1.89 2.14 2.57 2.84 2.48 2.48 2.48 2.42 2.37 2.24 2.23 2.29 1.90 1.54 1.60 2.11 2.16 1.51 1.47 1.65 1.69 1.64 1.57 1.86 2.32 2.57 2.54 2.51 2.33 2.28
2.31 1.97 1.86 1.76 1.68 1.68 1.78 1.62 1.80 1.91 2.03 2.12 2.13 2.21 2.43 2.50 2.70 2.83 2.88 2.89 2.94 2.79 2.59 2.79 2.74 2.13 2.14 2.55 2.67 2.36 1.81 1.78 1.95 1.86 1.97 2.04 2.12 2.65 3.13 3.03 2.95 2.69 2.50
2.56 2.25 2.04 1.90 1.90 1.99 1.94 1.91 1.90 1.97 2.05 2.24 2.39 2.39 2.67 3.07 3.19 3.32 3.30 3.10 3.18 3.17 3.34 3.29 3.32 2.86 2.86 2.65 2.56 2.49 2.28 2.32 2.21 2.43 2.86 2.56 2.29 2.66 3.42 3.53 3.42 3.11 2.72
2.73 2.41 2.36 2.09 2.02 2.07 2.25 2.39 2.13 2.39 2.43 2.48 2.71 2.86 2.99 3.32 3.42 3.51 3.46 3.43 3.10 3.13 3.34 3.68 3.54 3.73 3.71 3.28 2.82 2.65 2.63 2.64 2.59 2.71 3.01 3.04 2.83 2.93 3.72 4.20 4.08 3.74 3.27
2.71 2.52 2.47 2.33 2.36 2.44 2.50 2.64 2.73 2.90 3.02 2.94 2.96 3.08 3.17 3.40 3.77 3.81 3.75 3.69 3.28 3.13 3.43 3.76 3.75 4.27 4.16 3.96 3.40 3.04 2.83 2.80 2.76 2.87 3.21 3.41 3.31 3.25 3.73 4.33 4.59 4.52 4.07
2.52 2.59 2.71 2.80 3.01 3.12 3.13 3.13 3.10 3.25 3.31 3.42 3.71 3.78 3.84 3.78 3.94 3.81 3.80 3.63 3.51 3.43 3.60 3.67 3.80 4.23 4.00 3.96 3.81 3.48 3.25 3.02 2.84 3.05 3.44 3.80 3.40 3.31 3.69 4.23 4.66 4.66 4.50
2.59 2.65 2.87 2.92 3.32 3.51 3.62 3.73 3.66 3.66 3.68 3.93 4.16 4.33 4.28 4.11 3.92 3.99 3.75 3.54 3.62 3.57 3.76 4.08 4.09 4.18 4.33 4.26 4.03 3.72 3.54 3.44 2.98 3.01 3.16 3.36 3.61 3.12 3.53 4.23 4.51 4.29 4.40
2.91 3.16 3.50 3.56 3.53 3.65 3.87 4.04 3.83 3.88 3.88 3.89 4.00 4.26 4.16 3.84 3.71 4.07 3.91 3.89 3.80 4.01 3.92 3.59 4.20 4.42 4.43 4.32 3.72 3.69 3.30 3.26 3.18 2.93 3.05 3.11 3.33 3.28 3.34 3.48 4.09 3.94 4.19
3.26 3.66 3.89 3.90 4.14 4.46 4.68 4.58 4.37 4.06 3.90 3.78 3.82 3.99 3.88 3.80 3.71 4.01 3.80 3.75 3.90 4.30 4.36 4.22 4.51 4.43 4.27 4.32 3.63 3.44 3.16 2.85 2.84 2.81 2.62 2.86 2.93 2.66 2.89 3.15 3.57 3.05 3.32
3.33 3.60 3.89 4.26 4.65 4.78 4.62 4.57 4.57 4.40 4.18 3.78 3.62 3.73 3.76 3.53 3.57 3.94 3.63 4.00 4.03 4.22 4.36 4.30 4.54 4.44 4.20 4.31 4.29 3.70 3.07 2.66 2.58 2.38 2.39 2.63 2.56 2.60 2.94 3.41 3.70 3.56 3.15
3.09 3.39 3.81 4.27 4.61 4.52 4.65 4.90 4.91 4.74 4.15 3.82 3.70 3.69 3.55 3.37 3.32 3.42 3.94 3.91 4.01 4.23 4.30 4.24 4.29 4.07 3.78 4.14 4.47 4.30 3.55 3.08 2.63 2.15 2.39 2.41 2.54 2.83 2.85 2.91 3.37 3.75 3.54
3.06 3.53 3.88 4.20 4.34 4.37 4.59 4.77 4.52 4.37 3.95 3.84 3.82 3.70 3.48 3.39 3.35 3.48 3.74 3.83 3.92 3.80 4.04 4.22 4.02 3.97 3.86 3.89 4.15 4.41 3.91 3.25 2.73 2.40 2.27 2.33 2.69 2.95 2.79 2.74 2.72 2.99 3.07
3.07 3.67 4.11 4.12 4.20 4.07 4.21 4.38 4.25 3.94 3.72 3.59 3.56 3.36 3.23 3.13 3.12 3.24 3.41 3.60 3.74 3.63 3.80 3.65 3.73 3.93 3.97 3.78 3.88 3.81 3.73 3.49 3.30 2.86 2.45 2.34 2.58 2.68 2.65 2.43 2.42 2.75 2.91
2.79 3.21 3.65 4.00 4.08 3.90 3.87 3.98 4.12 3.93 3.63 3.39 3.25 3.18 3.12 3.09 2.91 2.89 3.11 3.33 3.46 3.35 3.32 3.52 3.86 3.81 3.72 3.68 3.81 3.83 3.98 3.80 3.45 3.29 2.91 2.63 2.50 2.26 2.33 2.38 2.35 2.44 2.66
2.59 2.96 3.26 3.49 3.48 3.44 3.42 3.47 3.57 3.62 3.57 3.33 3.13 3.17 3.13 2.96 2.81 2.74 2.83 3.17 3.28 3.22 3.20 3.30 3.39 3.44 3.48 3.65 3.65 3.54 3.77 3.80 3.62 3.66 3.28 2.90 2.60 2.12 2.05 2.13 2.24 2.36 2.49

GEFSSE_prec_meanprecacc_300.txt.gz
Total_Precipitation_Accumulation
2.24 2.45 2.47 1.71 1.40 1.30 1.32 1.28 1.26 1.23 1.26 1.32 1.40 1.52 1.47 1.53 1.64 1.67 1.78 2.05 2.17 2.34 2.75 2.91 2.84 2.65 2.35 2.12 2.02 1.83 1.58 1.61 1.68 1.68 1.64 1.64 1.71 1.97 2.41 2.25 2.08 1.54 1.47
1.70 1.94 2.06 1.56 1.22 1.18 1.15 1.15 1.13 1.12 1.13 1.12 1.23 1.42 1.51 1.67 1.82 1.81 1.96 2.23 2.47 2.80 2.82 2.64 2.49 2.22 2.08 1.86 1.71 1.61 1.54 1.65 1.75 1.76 1.65 1.50 1.77 2.15 2.44 2.29 2.24 1.50 1.44
1.24 1.38 1.35 1.37 1.13 1.01 1.01 1.06 1.08 1.07 1.06 1.01 1.12 1.36 1.55 1.80 2.06 2.09 2.18 2.45 2.78 2.77 2.58 2.45 2.10 1.84 1.72 1.52 1.45 1.46 1.51 1.66 1.78 1.98 1.99 1.45 1.40 2.14 2.24 2.10 1.72 1.29 1.28
0.98 1.00 0.93 1.06 1.04 0.98 0.97 0.95 0.95 0.96 0.96 1.01 1.13 1.34 1.53 1.70 1.96 2.06 2.22 2.47 2.65 2.50 2.43 2.12 1.80 1.60 1.44 1.26 1.23 1.27 1.39 1.62 1.92 2.27 2.24 1.70 1.11 1.64 1.96 1.78 1.48 1.23 1.17
0.88 0.83 0.97 1.02 0.96 0.94 0.87 0.89 0.92 0.93 0.92 1.00 1.10 1.28 1.46 1.68 1.91 2.05 2.11 2.31 2.32 2.16 2.07 1.90 1.68 1.41 1.23 1.11 1.08 1.18 1.38 1.70 1.93 2.11 1.92 1.81 1.60 1.72 1.76 1.66 1.47 1.38 1.27
0.84 0.84 0.93 1.00 0.94 0.97 0.88 0.82 0.89 0.92 0.97 1.01 1.17 1.33 1.45 1.73 1.89 1.92 2.02 2.29 2.22 2.06 1.93 1.79 1.53 1.25 1.07 0.97 1.02 1.11 1.33 1.70 1.70 1.42 1.43 1.55 1.48 1.61 1.61 1.72 1.59 1.42 1.31
1.02 1.05 0.98 1.04 1.02 0.96 0.86 0.76 0.83 0.88 0.97 1.03 1.20 1.35 1.43 1.61 1.72 1.86 2.05 2.15 2.05 1.90 1.75 1.61 1.40 1.16 1.09 1.10 1.07 1.07 1.34 1.61 1.41 1.25 1.32 1.67 1.50 1.29 1.55 1.80 1.74 1.53 1.33
1.03 1.09 1.08 1.18 1.14 1.07 0.91 0.81 0.85 0.95 1.04 1.12 1.21 1.27 1.35 1.46 1.58 1.78 2.02 2.09 1.93 1.65 1.54 1.49 1.34 1.18 1.12 1.15 1.07 1.10 1.32 1.38 1.11 1.18 1.13 1.29 1.16 1.19 1.50 1.73 1.73 1.59 1.43
1.21 1.17 1.17 1.22 1.11 1.15 1.10 0.96 1.00 1.14 1.18 1.19 1.23 1.24 1.30 1.46 1.61 1.79 2.04 2.11 1.88 1.58 1.47 1.40 1.32 1.19 1.09 1.12 1.14 1.22 1.41 1.55 1.38 1.41 1.06 1.20 1.16 1.33 1.62 1.77 1.78 1.71 1.64
1.63 1.43 1.34 1.43 1.40 1.25 1.20 1.18 1.26 1.33 1.34 1.33 1.32 1.40 1.55 1.75 1.78 1.97 2.06 2.06 1.85 1.63 1.51 1.41 1.36 1.22 1.16 1.15 1.19 1.41 1.68 1.54 1.19 1.25 1.29 1.14 1.26 1.61 1.97 1.94 1.96 1.96 1.93
1.98 1.78 1.56 1.41 1.38 1.34 1.29 1.37 1.68 1.70 1.60 1.58 1.63 1.72 1.85 2.14 2.20 2.41 2.24 2.17 1.96 1.83 1.78 1.67 1.65 1.54 1.39 1.29 1.43 1.66 1.61 1.40 1.44 1.52 1.46 1.26 1.50 1.93 2.27 2.24 2.21 2.18 2.18
2.14 1.81 1.73 1.61 1.46 1.38 1.25 1.42 1.89 1.76 1.70 1.85 2.02 1.97 2.22 2.68 2.93 2.58 2.61 2.63 2.56 2.50 2.34 2.33 2.38 1.99 1.60 1.63 2.15 2.20 1.54 1.48 1.67 1.71 1.67 1.61 1.91 2.38 2.64 2.61 2.57 2.40 2.36
2.32 1.97 1.87 1.77 1.69 1.69 1.80 1.64 1.82 1.95 2.07 2.15 2.16 2.25 2.50 2.62 2.79 2.91 2.99 3.03 3.13 2.95 2.68 2.88 2.84 2.19 2.17 2.57 2.69 2.39 1.84 1.81 1.98 1.89 2.00 2.08 2.17 2.71 3.19 3.10 3.01 2.75 2.56
2.57 2.26 2.04 1.91 1.91 1.99 1.95 1.93 1.92 2.00 2.07 2.26 2.42 2.41 2.73 3.18 3.28 3.40 3.39 3.20 3.32 3.29 3.42 3.34 3.37 2.90 2.90 2.69 2.59 2.53 2.32 2.36 2.25 2.47 2.91 2.61 2.34 2.70 3.47 3.58 3.46 3.17 2.78
2.73 2.42 2.37 2.09 2.03 2.09 2.27 2.39 2.15 2.43 2.46 2.50 2.73 2.90 3.05 3.41 3.49 3.58 3.53 3.49 3.18 3.23 3.44 3.74 3.59 3.79 3.77 3.33 2.86 2.70 2.68 2.67 2.61 2.74 3.04 3.09 2.89 2.97 3.78 4.27 4.14 3.80 3.32
2.71 2.54 2.48 2.34 2.38 2.47 2.53 2.66 2.75 2.94 3.07 2.99 3.00 3.13 3.23 3.49 3.85 3.89 3.84 3.75 3.35 3.20 3.50 3.82 3.80 4.32 4.21 4.02 3.45 3.09 2.88 2.84 2.79 2.90 3.23 3.45 3.37 3.29 3.78 4.40 4.65 4.58 4.13
2.52 2.60 2.73 2.84 3.08 3.19 3.17 3.17 3.14 3.30 3.37 3.46 3.75 3.83 3.92 3.88 4.03 3.91 3.89 3.71 3.58 3.48 3.64 3.71 3.83 4.27 4.04 4.01 3.85 3.52 3.30 3.07 2.88 3.08 3.47 3.83 3.46 3.37 3.75 4.30 4.72 4.72 4.56
2.59 2.66 2.89 2.99 3.39 3.58 3.66 3.77 3.70 3.70 3.72 3.97 4.19 4.39 4.38 4.21 3.99 4.08 3.83 3.63 3.69 3.63 3.83 4.13 4.13 4.23 4.38 4.32 4.09 3.76 3.58 3.47 3.01 3.04 3.19 3.39 3.65 3.16 3.58 4.28 4.56 4.33 4.44
2.93 3.18 3.52 3.62 3.57 3.67 3.90 4.08 3.88 3.93 3.92 3.92 4.04 4.32 4.25 3.93 3.76 4.13 3.99 3.98 3.88 4.08 3.98 3.63 4.24 4.48 4.48 4.38 3.77 3.72 3.33 3.29 3.21 2.97 3.08 3.14 3.35 3.30 3.37 3.51 4.14 3.98 4.22
3.30 3.69 3.92 3.94 4.18 4.48 4.70 4.61 4.40 4.12 3.95 3.81 3.84 4.03 3.94 3.87 3.78 4.08 3.87 3.85 4.00 4.37 4.41 4.27 4.57 4.50 4.34 4.40 3.69 3.48 3.19 2.89 2.87 2.83 2.64 2.87 2.94 2.67 2.91 3.17 3.59 3.07 3.34
3.40 3.65 3.92 4.29 4.68 4.81 4.64 4.60 4.60 4.43 4.22 3.81 3.65 3.77 3.80 3.57 3.61 3.99 3.71 4.10 4.12 4.30 4.42 4.37 4.60 4.50 4.26 4.36 4.33 3.74 3.10 2.69 2.60 2.40 2.40 2.64 2.57 2.61 2.95 3.42 3.71 3.57 3.15
3.17 3.45 3.84 4.29 4.63 4.55 4.68 4.93 4.94 4.78 4.19 3.85 3.74 3.74 3.59 3.41 3.35 3.46 4.01 3.98 4.08 4.30 4.35 4.30 4.36 4.11 3.81 4.18 4.54 4.37 3.59 3.11 2.65 2.16 2.39 2.42 2.56 2.85 2.87 2.93 3.39 3.76 3.55
3.13 3.57 3.91 4.23 4.37 4.41 4.65 4.82 4.57 4.42 4.00 3.88 3.87 3.77 3.56 3.45 3.40 3.53 3.80 3.90 4.01 3.90 4.11 4.30 4.10 4.02 3.90 3.95 4.21 4.47 3.96 3.29 2.75 2.40 2.27 2.33 2.70 2.97 2.81 2.76 2.75 3.02 3.09
3.10 3.69 4.13 4.15 4.23 4.12 4.30 4.47 4.33 4.01 3.77 3.64 3.63 3.44 3.33 3.24 3.19 3.31 3.49 3.70 3.84 3.73 3.89 3.73 3.82 3.99 4.04 3.85 3.94 3.86 3.77 3.52 3.33 2.88 2.46 2.35 2.59 2.69 2.66 2.44 2.44 2.76 2.93
2.81 3.23 3.67 4.03 4.10 3.94 3.92 4.03 4.17 3.97 3.67 3.43 3.29 3.25 3.21 3.20 3.02 3.00 3.22 3.42 3.55 3.43 3.41 3.62 3.98 3.92 3.86 3.74 3.85 3.86 4.01 3.82 3.47 3.31 2.93 2.65 2.51 2.27 2.35 2.40 2.37 2.46 2.68
2.60 2.97 3.27 3.50 3.50 3.46 3.44 3.50 3.59 3.65 3.60 3.35 3.16 3.21 3.18 3.05 2.91 2.84 2.95 3.25 3.34 3.27 3.24 3.38 3.50 3.56 3.58 3.70 3.69 3.57 3.80 3.84 3.66 3.70 3.31 2.91 2.61 2.14 2.06 2.15 2.26 2.40 2.52

GEFSSE_prec_meanprecacc_306.txt.gz
Total_Precipitation_Accumulation
2.28 2.53 2.62 1.86 1.51 1.41 1.44 1.40 1.37 1.34 1.39 1.43 1.48 1.64 1.66 1.72 1.83 1.85 1.96 2.25 2.40 2.59 3.03 3.17 3.05 2.79 2.46 2.22 2.13 1.92 1.67 1.69 1.74 1.73 1.69 1.71 1.78 2.05 2.48 2.30 2.14 1.59 1.51
1.76 2.04 2.17 1.67 1.32 1.28 1.26 1.28 1.26 1.27 1.27 1.23 1.33 1.57 1.73 1.86 2.03 2.01 2.21 2.54 2.77 3.10 3.10 2.86 2.64 2.33 2.17 1.96 1.83 1.71 1.63 1.72 1.82 1.82 1.71 1.57 1.85 2.21 2.50 2.34 2.29 1.56 1.51
1.31 1.47 1.44 1.46 1.22 1.11 1.11 1.18 1.21 1.20 1.21 1.14 1.23 1.50 1.73 2.00 2.25 2.29 2.48 2.77 3.07 3.09 2.79 2.58 2.19 1.91 1.77 1.59 1.55 1.55 1.60 1.75 1.87 2.06 2.04 1.51 1.46 2.19 2.31 2.17 1.79 1.35 1.35
1.04 1.07 1.00 1.16 1.14 1.07 1.04 1.03 1.04 1.07 1.09 1.15 1.25 1.47 1.67 1.87 2.15 2.28 2.50 2.74 2.89 2.71 2.58 2.22 1.88 1.67 1.49 1.31 1.30 1.35 1.47 1.70 1.99 2.34 2.29 1.75 1.16 1.69 2.02 1.86 1.53 1.28 1.23
0.93 0.88 1.04 1.10 1.04 1.01 0.94 0.97 0.99 1.02 1.03 1.11 1.21 1.40 1.59 1.84 2.13 2.28 2.30 2.51 2.46 2.26 2.17 2.01 1.78 1.47 1.29 1.16 1.14 1.25 1.45 1.76 1.98 2.15 1.96 1.87 1.67 1.78 1.83 1.72 1.52 1.43 1.32
0.88 0.89 1.00 1.07 1.00 1.02 0.95 0.90 0.98 1.03 1.09 1.12 1.26 1.44 1.56 1.85 2.03 2.05 2.14 2.40 2.35 2.16 2.03 1.90 1.61 1.31 1.13 1.02 1.06 1.16 1.39 1.75 1.74 1.46 1.48 1.60 1.53 1.66 1.67 1.78 1.63 1.47 1.36
1.05 1.09 1.03 1.10 1.08 1.02 0.91 0.84 0.94 1.00 1.11 1.15 1.29 1.43 1.52 1.70 1.82 1.96 2.14 2.24 2.18 2.02 1.84 1.71 1.48 1.23 1.15 1.14 1.11 1.12 1.38 1.64 1.44 1.27 1.35 1.70 1.54 1.34 1.61 1.84 1.78 1.56 1.36
1.04 1.11 1.11 1.22 1.19 1.12 0.96 0.90 0.98 1.08 1.17 1.26 1.33 1.36 1.44 1.55 1.67 1.88 2.10 2.16 2.02 1.76 1.63 1.58 1.42 1.25 1.17 1.18 1.10 1.12 1.35 1.40 1.13 1.19 1.14 1.31 1.19 1.23 1.54 1.76 1.76 1.62 1.46
1.21 1.17 1.19 1.26 1.17 1.19 1.16 1.04 1.12 1.26 1.32 1.33 1.35 1.34 1.39 1.54 1.71 1.89 2.12 2.19 1.96 1.67 1.57 1.49 1.38 1.26 1.14 1.16 1.17 1.25 1.44 1.58 1.41 1.44 1.08 1.23 1.19 1.36 1.65 1.81 1.82 1.74 1.68
1.63 1.43 1.36 1.46 1.48 1.30 1.26 1.25 1.36 1.43 1.47 1.51 1.53 1.61 1.73 1.87 1.88 2.07 2.14 2.15 1.94 1.72 1.60 1.50 1.45 1.30 1.22 1.20 1.24 1.45 1.72 1.57 1.21 1.27 1.32 1.18 1.29 1.64 2.00 1.98 2.00 2.00 1.97
1.99 1.78 1.57 1.43 1.45 1.41 1.36 1.45 1.78 1.80 1.70 1.71 1.84 1.95 2.06 2.31 2.34 2.54 2.34 2.27 2.07 1.94 1.89 1.77 1.75 1.62 1.45 1.33 1.47 1.71 1.64 1.43 1.46 1.56 1.51 1.30 1.54 1.97 2.32 2.30 2.26 2.23 2.22
2.14 1.82 1.75 1.64 1.50 1.43 1.31 1.54 2.00 1.85 1.79 1.94 2.14 2.10 2.36 2.84 3.09 2.71 2.73 2.75 2.67 2.60 2.45 2.44 2.47 2.05 1.65 1.67 2.18 2.24 1.57 1.50 1.70 1.76 1.72 1.66 1.95 2.42 2.69 2.68 2.65 2.46 2.42
2.33 1.98 1.88 1.79 1.74 1.74 1.83 1.71 1.90 2.04 2.17 2.27 2.29 2.37 2.65 2.81 2.96 3.06 3.12 3.16 3.26 3.05 2.80 3.01 2.95 2.25 2.21 2.61 2.73 2.43 1.87 1.85 2.02 1.94 2.04 2.11 2.20 2.74 3.23 3.15 3.06 2.80 2.62
2.58 2.26 2.05 1.93 1.94 2.03 1.98 1.97 1.98 2.06 2.15 2.36 2.54 2.53 2.87 3.35 3.46 3.57 3.55 3.35 3.46 3.41 3.55 3.46 3.48 2.97 2.96 2.73 2.63 2.57 2.36 2.42 2.31 2.51 2.95 2.64 2.37 2.73 3.50 3.62 3.50 3.21 2.83
2.75 2.43 2.38 2.11 2.07 2.13 2.30 2.43 2.19 2.48 2.53 2.60 2.84 3.01 3.18 3.55 3.63 3.73 3.71 3.66 3.31 3.36 3.57 3.87 3.68 3.86 3.84 3.39 2.90 2.74 2.71 2.71 2.66 2.78 3.08 3.13 2.91 3.00 3.81 4.31 4.18 3.83 3.36
2.72 2.56 2.50 2.36 2.41 2.50 2.56 2.70 2.79 2.99 3.13 3.07 3.10 3.23 3.36 3.63 3.97 4.03 3.99 3.89 3.47 3.33 3.64 3.96 3.90 4.40 4.30 4.09 3.49 3.12 2.93 2.88 2.83 2.93 3.25 3.48 3.40 3.33 3.81 4.43 4.69 4.63 4.18
2.54 2.62 2.74 2.86 3.11 3.21 3.19 3.19 3.18 3.34 3.40 3.51 3.84 3.92 4.04 4.00 4.14 4.00 4.00 3.83 3.68 3.59 3.76 3.84 3.94 4.35 4.11 4.08 3.90 3.56 3.34 3.11 2.91 3.11 3.49 3.87 3.51 3.41 3.79 4.33 4.76 4.76 4.61
2.61 2.68 2.91 3.02 3.41 3.60 3.68 3.80 3.72 3.73 3.75 4.01 4.26 4.48 4.48 4.28 4.05 4.14 3.91 3.71 3.76 3.71 3.92 4.22 4.21 4.31 4.44 4.39 4.16 3.84 3.64 3.51 3.05 3.08 3.24 3.44 3.69 3.19 3.62 4.33 4.63 4.39 4.50
2.94 3.20 3.56 3.68 3.60 3.69 3.92 4.11 3.90 3.96 3.95 3.98 4.11 4.42 4.35 4.00 3.81 4.19 4.06 4.05 3.95 4.16 4.07 3.70 4.34 4.56 4.56 4.49 3.89 3.84 3.41 3.34 3.26 3.03 3.15 3.21 3.41 3.34 3.40 3.55 4.18 4.02 4.26
3.33 3.72 3.95 3.98 4.20 4.50 4.72 4.64 4.43 4.14 3.98 3.87 3.93 4.13 4.04 3.95 3.84 4.14 3.93 3.92 4.07 4.47 4.52 4.38 4.69 4.62 4.46 4.56 3.83 3.57 3.24 2.92 2.90 2.88 2.69 2.92 2.97 2.68 2.92 3.17 3.60 3.08 3.36
3.43 3.66 3.93 4.31 4.71 4.83 4.66 4.61 4.62 4.46 4.26 3.88 3.72 3.85 3.88 3.65 3.69 4.08 3.80 4.20 4.21 4.39 4.50 4.46 4.70 4.58 4.32 4.42 4.40 3.80 3.14 2.71 2.63 2.44 2.44 2.66 2.58 2.62 2.95 3.43 3.71 3.58 3.16
3.18 3.45 3.85 4.31 4.65 4.57 4.70 4.95 4.96 4.81 4.24 3.91 3.80 3.81 3.66 3.48 3.41 3.51 4.11 4.08 4.17 4.39 4.43 4.38 4.43 4.17 3.86 4.24 4.60 4.44 3.64 3.15 2.68 2.18 2.42 2.45 2.58 2.86 2.87 2.93 3.39 3.77 3.56
3.15 3.58 3.92 4.25 4.39 4.42 4.66 4.84 4.59 4.45 4.04 3.94 3.93 3.81 3.59 3.49 3.43 3.56 3.86 3.98 4.08 3.98 4.20 4.39 4.19 4.09 3.96 4.02 4.27 4.55 4.06 3.38 2.82 2.44 2.29 2.36 2.72 2.99 2.82 2.76 2.75 3.03 3.11
3.12 3.70 4.14 4.16 4.24 4.14 4.31 4.48 4.34 4.04 3.81 3.70 3.69 3.49 3.38 3.28 3.23 3.34 3.55 3.77 3.91 3.80 3.97 3.82 3.91 4.08 4.12 3.92 4.01 3.92 3.84 3.61 3.44 2.97 2.51 2.38 2.62 2.71 2.68 2.45 2.44 2.78 2.95
2.82 3.25 3.68 4.04 4.12 3.95 3.94 4.05 4.19 4.00 3.71 3.47 3.34 3.31 3.29 3.28 3.08 3.07 3.30 3.50 3.62 3.50 3.49 3.70 4.06 4.00 3.93 3.80 3.91 3.91 4.04 3.88 3.56 3.40 2.99 2.70 2.55 2.29 2.37 2.41 2.38 2.47 2.69
2.62 2.99 3.29 3.51 3.51 3.47 3.46 3.52 3.62 3.68 3.63 3.39 3.20 3.26 3.26 3.15 3.01 2.95 3.06 3.36 3.42 3.34 3.33 3.46 3.57 3.62 3.65 3.75 3.75 3.63 3.86 3.89 3.71 3.76 3.36 2.97 2.66 2.17 2.09 2.18 2.29 2.42 2.54